Regional Weather Roundup
Issued by NWS

Home | Current Version | Previous Version | Graphics & Text | Print | Product List | Glossary On
Versions: 1 2 3 4 5 6 7 8 9 10 11 12 13 14 15 16 17 18 19 20 21 22 23 24 25 26 27 28 29 30 31 32 33 34 35 36 37 38 39 40 41 42 43 44 45 46 47 48 49 50
000
ASUS43 KIND 290509
RWRIN

WEATHER ROUNDUP FOR INDIANA
NATIONAL WEATHER SERVICE INDIANAPOLIS IN
100 AM EDT SUN MAY 29 2016

NOTE: "FAIR" INDICATES FEW OR NO CLOUDS BELOW 12,000 FEET WITH NO
SIGNIFICANT WEATHER AND/OR OBSTRUCTIONS TO VISIBILITY.

* - STATION DOES NOT REPORT WEATHER SUCH AS PRECIPITATION OR FOG.

+ - STATION NOT QUALITY CONTROLLED BY THE NATIONAL WEATHER SERVICE.
    USE DATA WITH CAUTION...ESPECIALLY DEWPOINT AND RELATIVE
    HUMIDITY OBSERVATIONS.

INZ001>003-010>013-019-020-290600-
NORTHWEST INDIANA

CITY           SKY/WX    TMP DP  RH WIND       PRES   REMARKS
GARY /AIRPORT/ CLOUDY    75  71  87 SW3       29.98S
KNOX *+        PTCLDY    72  57  60 S10       30.01R
LA PORTE +     MOCLDY    74  66  77 S7        30.01S
MICHIGAN CITY+ MOCLDY    72  64  78 S8        30.00R
MONTICELLO +   PTCLDY    71  64  77 S7        30.02R
RENSSELAER +   MOCLDY    72  66  83 SW12      30.02R
VALPARAISO     PTCLDY    72  64  76 S9        30.00R

$$

LMZ046-743>745-290600-
SOUTHERN LAKE MICHIGAN

STATION/POSITION TIME  TEMP    WIND        PRES    WAVE
                       AIR SEA DIR/SP/G            HT
                 (UTC) (F)     (DEG/KT/KT) (MB)    (FT)
BURNS HARBOR     0400   74     190/ 13/ 18 1015.2R
MICHIGAN CITY    0400   75     150/ 16/ 19   N/A
5NW MICH CITY    0500   67 57  200/  8/ 12   N/A     1

$$

INZ004-005-014>016-021>024-290600-
NORTH CENTRAL INDIANA

CITY           SKY/WX    TMP DP  RH WIND       PRES   REMARKS
GOSHEN         CLOUDY    71  63  75 S10       30.02S
LOGANSPORT +   MOCLDY    70  64  83 S8        30.04R
PERU/GRISSOM   CLOUDY    72  66  80 SW8       30.03R
ROCHESTER +    MOCLDY    73  66  78 S7        30.04R
SOUTH BEND     PTCLDY    73  64  73 S10       30.01R
WARSAW +       CLOUDY    72  63  73 SW6       30.03S

$$

INZ006>009-017-018-025>027-290600-
NORTHEAST INDIANA

CITY           SKY/WX    TMP DP  RH WIND       PRES   REMARKS
ANGOLA *+        N/A     72  64  78 S6        30.04R
AUBURN +       CLOUDY    72  63  73 S3        30.05S
FORT WAYNE     CLOUDY    69  65  86 S8        30.05R
HUNTINGTON +   CLOUDY   N/A N/A N/A S6        30.04R

$$

INZ028-029-035-036-043>045-051>053-290600-
WEST CENTRAL INDIANA

CITY           SKY/WX    TMP DP  RH WIND       PRES   REMARKS
CRAWFORDSVL +  MOCLDY    67  65  93 S7        30.04R
GREENCASTLE +  CLOUDY    68  68 100 S3        30.05S
LAFAYETTE      PTCLDY    70  65  84 S3        30.01S
TERRE HAUTE    PTCLDY    71  65  81 S9        30.03S

$$

INZ030>032-037>040-046>048-054>057-064-065-290600-
CENTRAL INDIANA

CITY           SKY/WX    TMP DP  RH WIND       PRES   REMARKS
CP ATTERBURY + MOCLDY    68  64  88 S3        30.07S
FISHERS *+     CLOUDY    70  68  94 S7        30.06R
FRANKFORT +      N/A     70  59  67 CALM      30.06R
GREENWOOD *+   CLOUDY    72  66  83 SE6       30.07R
INDIANAPOLIS   CLOUDY    71  65  81 S9        30.03S
-EAGLE CREEK   MOCLDY    72  65  78 S5        30.04S
KOKOMO *+      CLOUDY    72  63  73 S9        30.04R
MARION +       CLOUDY    71  65  82 S10       30.05S
SHELBYVILLE    CLOUDY    72  66  81 S9        30.06S
ZIONSVILLE +   MOCLDY    70  65  83 S9        30.06R

$$

INZ033-034-041-042-049-050-058-059-290600-
EAST CENTRAL INDIANA

CITY           SKY/WX    TMP DP  RH WIND       PRES   REMARKS
MUNCIE         PTCLDY    72  64  76 S8        30.06S

$$

INZ060-061-067>069-081>083-085>088-290600-
SOUTHWEST INDIANA

CITY           SKY/WX    TMP DP  RH WIND       PRES   REMARKS
EVANSVILLE     PTCLDY    72  66  81 S5        30.06S
HUNTINGBURG *+ PTCLDY    72  64  78 S6        30.07S
WASHINGTON +   CLEAR     70  70 100 S6        30.04F

$$

INZ062-063-066-070>080-084-089>092-290600-
SOUTH CENTRAL AND SOUTHEAST INDIANA

CITY           SKY/WX    TMP DP  RH WIND       PRES   REMARKS
BLOOMINGTON    CLOUDY    71  65  81 S8        30.06S
MADISON *+     MOCLDY    68  61  77 CALM      30.11R
NORTH VERNON + CLOUDY    70  70 100 CALM      30.09S
SEYMOUR +      CLOUDY    72  64  78 S5        30.07R

$$





USA.gov is the U.S. government's official web portal to all federal, state and local government web resources and services.